Regional Weather Roundup
Issued by NWS

Home | Current Version | Previous Version | Graphics & Text | Print | Product List | Glossary On
Versions: 1 2 3 4 5 6 7 8 9 10 11 12 13 14 15 16 17 18 19 20 21 22 23 24 25 26 27 28 29 30 31 32 33 34 35 36 37 38 39 40 41 42 43 44 45 46 47 48 49 50
477
ASUS45 KBOU 200107
RWRCO

WEATHER ROUNDUP FOR COLORADO
NATIONAL WEATHER SERVICE DENVER/BOULDER CO
700 PM MDT SAT AUG 19 2017

NOTE: "FAIR" INDICATES FEW OR NO CLOUDS BELOW 12000 FEET WITH NO
SIGNIFICANT WEATHER AND/OR OBSTRUCTIONS TO VISIBILITY.

COZ001>005-013-030-031-200200-
...NORTHWEST COLORADO...

CITY           SKY/WX    TMP DP  RH WIND       PRES   REMARKS
CRAIG          FAIR      84  26  12 W7G17     30.10F
HAYDEN         FAIR      79  28  15 W6        30.15F
MEEKER         FAIR      82  28  14 W7        30.14S
RABBIT EARS PA FAIR      61  27  27 W8G21     30.48S
STEAMBOAT SPGS FAIR      80  26  13 W10G16    30.16S
WALDEN         FAIR      75  19  12 W9        30.28S
$$

COZ006>008-011-200200-
...WEST CENTRAL VALLEYS...

CITY           SKY/WX    TMP DP  RH WIND       PRES   REMARKS
GRAND JUNCTION FAIR      91  31  11 NW10      29.99F
MONTROSE       FAIR      83  37  19 W3        30.09F
EAGLE          FAIR      79  35  20 SW12      30.18R
RIFLE          FAIR      85  34  16 S8        30.07F
DELTA          FAIR      92  29  10 CALM      30.03F
NUCLA          FAIR      86  27  11 SW7       30.12F
$$

COZ017>023-064>068-200200-
...SOUTHWEST COLORADO...

CITY           SKY/WX    TMP DP  RH WIND       PRES   REMARKS
DURANGO        FAIR      83  30  14 N6        30.14F
CORTEZ         FAIR      88  23   9 NW8       30.07F
PAGOSA SPRINGS FAIR      80  22  12 N5        30.24S
TELLURIDE      FAIR      70  31  23 SE6       30.38F
WOLF CREEK PAS MOCLDY    55  28  35 CALM      30.64S
$$

COZ009-010-012-014-032>034-037-058>063-200200-
...CENTRAL COLORADO...

CITY           SKY/WX    TMP DP  RH WIND       PRES   REMARKS
ASPEN          FAIR      72  34  24 N7        30.25F
BUENA VISTA    MOCLDY    77  26  15 NW12      30.25S
COPPER MTN     FAIR      55  27  33 W12       30.61F
BERTHOUD PASS  FAIR      52  46  82 NW16G25   30.63S
COTTONWOOD PAS FAIR      72  21  15 NW5       30.41S
GUNNISON       FAIR      75  37  25 N9        30.24S
KREMMLING      FAIR      79  28  15 W9        30.22S
LEADVILLE      FAIR      65  27  23 W14       30.39S
MONARCH PASS   FAIR      61  28  29 W23       30.69S
SALIDA         FAIR      80  31  17 CALM      30.27S
SUNLIGHT       FAIR      55  32  41 SW3       30.54S
WILKERSON PASS FAIR      57  28  33 NE9       30.56S
$$

COZ069>075-200200-
...SAN LUIS VALLEY/SANGRE DE CRISTO MOUNTAINS...

CITY           SKY/WX    TMP DP  RH WIND       PRES   REMARKS
ALAMOSA        FAIR      77  34  21 SW9       30.20S
DEL NORTE      MOCLDY    75  34  22 NW8       30.26S
LA VETA PASS   NOT AVBL
SAGUACHE       FAIR      77  32  19 N10       30.24S
$$

COZ035-036-038>040-200200-
...NORTHERN COLORADO FRONT RANGE...

CITY           SKY/WX    TMP DP  RH WIND       PRES   REMARKS
DENVER INTL AP MOCLDY    84  34  16 W25G37    30.03R
DMNS CITY PARK   N/A     84  33  16 NE9G15    30.03S
AURORA         MOCLDY    82  39  21 W14       30.06R
FRONT RANGE AP TSTM      81  36  19 W22G31    30.06R
ERIE MUNI ARPT FAIR      86  31  14 S9        30.05F
BOULDER MUN AP FAIR      84  36  17 SE9       30.01R
CENTENNIAL     MOCLDY    83  32  16 S3        30.07R
BROOMFIELD     MOCLDY    81  45  28 SE8       30.06S
FORT COLLINS   FAIR      90  42  18 N5        29.98R
LONGMONT       FAIR      85  45  24 SW5       30.01R
$$

COZ041-046-047-076>085-087-088-200200-
...PIKES PEAK/PALMER DIVIDE AND SOUTHERN FOOTHILLS...

CITY           SKY/WX    TMP DP  RH WIND       PRES   REMARKS
COLO. SPRINGS  MOCLDY    81  40  23 SE16G28   30.13R THUNDER
A. F. ACADEMY  FAIR      75  48  38 NE7       30.15S
SCHRIEVER AFB  LGT RAIN  78  40  25 S3        30.15R
CHEYENNE MTN   LGT RAIN  70  47  44 NW7       30.14R
ELLICOTT       NOT AVBL
FALCON         CLOUDY    73  41  31 SE7       30.19S
FORT CARSON    CLOUDY    77  48  36 N14G21    30.09R THUNDER
LIMON            N/A     79  49  34 S6        30.02S
MONUMENT HILL  FAIR      68  43  40 SW5       30.20S
CANON CITY     CLEAR     88  46  23 SE9       30.01R
WALSENBURG     FAIR      84  43  23 SE12      30.08S
TRINIDAD       FAIR      77  46  33 S12       30.08S
$$

COZ042>045-048>051-090-091-200200-
...NORTHEAST COLORADO...

CITY           SKY/WX    TMP DP  RH WIND       PRES   REMARKS
GREELEY ARPT   FAIR      82  58  43 E6        29.95S HAZE
AKRON          FAIR      87  45  23 N3        29.95
BURLINGTON     FAIR      86  57  37 S13G22    29.94S
WRAY           NOT AVBL
YUMA           FAIR      79  59  50 SE9       29.91S
STERLING       FAIR      90  52  27 E3        29.88F
HOLYOKE        FAIR      86  64  48 N7        29.89R
FORT MORGAN    FAIR      92  30  11 NW6       29.94S
$$

COZ086-089-092>099-200200-
...SOUTHEAST COLORADO...

CITY           SKY/WX    TMP DP  RH WIND       PRES   REMARKS
PUEBLO         FAIR      88  45  22 S12       29.95F
LA JUNTA       FAIR      85  51  31 S20G28    29.96R
LAMAR          FAIR      84  49  29 SW20G30   29.91R
SPRINGFIELD      N/A     70  60  70 SW10      29.99F
$$




USA.gov is the U.S. government's official web portal to all federal, state and local government web resources and services.